Wind_Speed
7 7 9 10 11 13 15 16 17 18 19 20 21 22 23 23 23 23 23 23 23 22 22 22 22 22 22 21 21 20 20 21 21 22 23 23 23 24 24 25 25 26 26
7 7 8 10 11 13 14 15 16 17 19 19 20 22 23 23 23 23 23 23 24 23 23 23 23 24 24 23 23 23 23 23 24 25 25 26 26 27 28 28 29 29 29
7 7 8 9 10 13 14 16 16 17 18 18 18 20 21 23 23 23 23 24 24 25 24 24 25 25 25 26 26 25 26 27 27 28 29 29 30 30 31 31 32 32 32
7 7 7 8 9 11 14 16 16 16 17 17 17 19 21 22 24 25 25 25 24 25 25 26 26 26 26 27 27 27 28 29 29 30 31 32 32 32 33 33 33 34 35
7 7 8 8 9 10 13 15 16 17 17 18 18 19 20 22 24 24 24 24 24 24 25 25 25 26 27 27 28 29 30 31 32 33 33 34 34 35 36 36 36 36 37
8 8 8 8 9 10 11 14 14 15 17 18 18 19 20 21 23 23 25 26 26 27 27 26 26 28 29 29 29 31 32 33 34 34 34 36 36 37 37 38 38 38 39
9 9 9 9 9 10 11 13 14 15 17 17 18 19 20 21 21 22 23 24 25 26 26 27 28 29 30 32 32 33 33 34 35 36 37 37 37 38 39 39 40 41 41
11 10 10 10 10 11 12 13 14 16 17 18 18 19 20 21 22 22 23 24 26 27 28 28 29 31 32 33 34 34 34 35 36 37 38 39 40 40 41 42 43 43 44
13 13 12 12 11 12 13 13 14 16 17 18 18 19 20 21 22 23 25 26 27 28 29 31 31 32 33 34 35 35 36 37 39 40 41 42 43 43 44 45 46 46 47
14 15 14 13 13 13 13 13 14 16 17 17 18 19 21 22 23 24 25 27 28 29 30 31 32 33 34 35 36 38 38 40 41 42 43 44 45 46 47 48 49 50 51
16 16 16 15 15 15 15 15 16 17 18 18 18 19 20 22 23 25 26 28 29 30 30 32 33 34 35 36 37 39 41 42 43 44 45 47 48 48 49 50 51 52 54
18 17 17 17 17 18 18 18 18 18 19 18 18 20 21 22 24 25 26 28 29 31 32 34 35 37 38 39 40 41 42 43 44 45 46 47 48 49 51 52 54 55 57
20 19 19 19 19 19 19 19 19 18 19 20 20 21 23 24 25 26 27 28 29 31 33 35 37 38 40 40 41 42 44 45 45 46 47 48 49 51 52 54 56 57 58
22 21 21 21 20 20 19 20 21 21 21 22 22 23 23 25 27 28 29 29 31 33 35 37 37 38 40 42 43 44 45 46 47 48 49 51 52 53 55 57 58 59 60
22 22 22 21 21 21 21 21 21 22 23 24 24 25 26 28 29 30 31 32 33 35 36 38 39 40 42 43 45 46 47 48 50 51 52 54 55 56 57 58 58 60 61
22 22 22 22 23 23 22 23 23 24 24 25 27 28 28 29 30 31 32 34 35 37 38 39 41 42 43 44 46 47 48 50 51 53 54 55 56 56 57 57 58 58 59
21 21 21 22 23 24 25 25 25 26 27 27 28 29 30 31 32 32 33 34 36 36 37 39 41 42 44 45 47 48 50 51 53 54 55 55 55 55 55 55 55 55 54
20 21 22 22 23 24 25 27 27 28 29 30 30 31 32 32 33 33 34 35 36 37 39 41 43 44 46 48 50 51 51 52 52 53 54 54 54 53 53 52 51 50 49
21 21 22 22 23 24 25 26 28 29 29 30 30 31 31 31 31 33 34 36 37 39 41 42 44 45 47 48 49 50 51 51 51 51 51 50 50 49 48 47 46 45 44
19 20 21 22 23 24 24 25 26 27 27 28 29 29 30 31 32 34 36 38 40 41 43 44 45 46 47 48 49 49 49 49 49 48 48 47 46 45 44 43 42 40 38
19 19 20 21 22 23 23 24 25 26 26 27 28 30 31 32 34 36 38 40 41 42 43 44 45 46 47 48 48 48 47 47 46 45 44 42 41 41 40 39 38 36 35
19 20 21 21 21 22 22 24 25 26 27 28 30 32 34 36 37 39 40 41 42 43 44 45 46 46 46 46 45 45 44 43 42 41 40 39 38 38 37 35 34 32 32
19 20 20 21 21 22 23 25 26 28 29 31 33 35 36 38 39 40 41 42 43 44 44 44 44 43 43 42 41 40 40 39 38 37 36 35 34 33 32 30 29 28 28
19 19 20 21 23 24 26 27 28 30 32 34 35 37 38 40 40 41 41 41 41 41 41 40 40 39 38 38 37 36 35 34 33 32 31 30 30 29 27 26 25 25 25
20 21 22 23 25 26 28 29 31 33 34 35 36 37 38 38 38 38 38 38 38 38 37 37 36 36 35 34 34 32 31 30 29 28 27 26 25 24 23 23 22 23 23
21 22 23 25 26 27 29 31 32 33 34 34 35 35 35 35 35 36 36 36 35 35 34 33 33 32 31 31 30 29 28 28 26 25 24 23 22 22 21 20 20 20 20
Wind_Direction
278 265 257 251 241 234 228 224 226 225 225 227 230 232 234 236 237 238 240 239 239 242 246 245 246 248 250 253 255 258 262 265 268 270 273 276 278 280 281 283 283 283 284
285 269 257 251 244 236 227 224 224 225 227 231 234 235 236 237 238 240 239 241 243 244 247 248 250 250 251 254 256 259 263 266 269 271 273 275 277 280 282 282 282 283 283
290 273 263 255 248 236 227 225 225 229 231 235 237 237 238 239 239 241 243 246 245 245 247 250 252 254 255 257 258 261 265 268 270 272 273 275 277 279 281 282 282 282 282
294 276 267 261 257 238 229 227 228 233 235 238 242 242 241 241 242 245 247 248 248 248 249 252 255 256 259 260 261 264 266 269 271 273 274 275 277 278 280 282 283 283 283
295 281 272 264 256 244 234 233 232 234 236 240 244 245 246 247 247 247 249 249 249 252 253 255 259 260 261 264 265 266 269 271 273 274 275 276 277 279 280 281 281 282 283
293 286 284 278 263 250 241 237 237 238 239 242 244 249 250 250 249 250 250 250 253 255 257 258 262 264 264 264 266 269 271 273 275 277 277 277 278 280 280 281 282 282 281
285 282 280 280 272 258 249 241 242 243 243 244 247 251 251 249 250 252 252 253 256 259 261 262 263 267 268 267 268 270 273 275 276 276 279 279 280 280 281 281 282 282 282
283 279 274 275 273 266 257 250 252 250 249 248 251 252 253 252 251 254 254 256 258 261 264 265 267 269 271 272 271 273 275 276 277 278 280 281 281 281 282 282 283 283 283
278 276 270 268 269 267 262 257 256 255 256 254 256 255 256 255 255 256 257 259 262 265 266 268 270 272 272 272 273 274 276 278 279 280 281 281 282 282 283 283 284 284 284
275 272 271 270 266 264 265 264 265 263 261 261 260 261 260 261 263 264 264 264 265 267 268 269 271 271 272 274 276 278 279 280 281 282 282 282 282 283 283 283 284 284 284
269 270 268 266 265 264 265 265 266 267 267 268 266 267 268 268 268 268 266 266 268 270 271 272 273 274 275 277 279 280 280 280 281 281 282 283 284 284 284 285 285 285 286
264 265 265 265 266 265 264 265 265 266 270 274 274 272 270 271 273 272 270 271 272 273 274 274 275 276 277 279 280 281 281 282 282 283 284 284 285 286 286 286 286 286 287
259 261 263 264 264 264 260 264 269 271 273 276 276 276 276 275 275 276 274 274 276 276 277 277 278 278 278 280 281 282 283 283 284 285 285 286 286 286 287 288 288 288 288
259 261 263 262 263 265 264 267 270 271 273 276 277 278 277 276 276 277 277 279 279 279 279 280 280 280 281 282 283 283 284 285 285 286 287 287 288 289 289 289 289 289 289
258 260 263 264 263 267 268 268 273 276 277 278 280 281 281 281 281 281 280 280 281 282 282 283 282 283 283 284 285 285 286 287 288 289 289 290 290 290 290 289 290 290 289
258 261 263 264 263 264 267 270 275 278 279 280 282 283 284 284 282 282 281 282 283 284 284 283 283 283 285 286 287 288 288 289 290 290 291 291 291 291 291 291 291 291 292
258 261 263 264 264 264 266 270 275 278 279 281 281 282 283 283 283 283 284 285 286 285 285 285 286 287 288 289 290 290 291 292 292 292 293 293 293 293 293 293 294 294 294
261 263 264 265 266 269 271 273 275 279 280 281 281 281 282 283 284 285 287 287 288 289 289 290 290 290 291 292 292 293 294 295 295 295 295 295 295 295 295 295 295 296 296
264 265 266 267 269 272 276 277 279 281 283 284 284 285 285 286 287 289 290 291 292 292 292 293 293 293 294 295 296 296 297 297 297 297 297 297 296 296 296 297 297 297 297
268 268 269 271 273 276 278 280 282 283 283 284 284 285 286 287 290 291 292 293 294 294 295 296 296 297 298 298 298 298 298 299 299 299 299 299 298 298 298 298 299 299 298
270 271 273 276 278 280 280 282 283 284 285 286 287 290 291 293 294 295 296 296 297 298 299 300 300 300 301 300 300 300 300 300 300 300 300 299 299 299 299 299 299 299 300
270 273 276 278 280 282 283 284 287 289 291 292 294 295 296 296 297 298 298 299 300 300 301 302 303 303 303 303 303 303 302 301 301 301 300 299 299 301 301 301 301 301 302
276 277 279 282 284 286 288 290 291 292 294 295 296 297 298 298 299 299 300 301 302 302 303 304 304 305 305 305 304 304 304 303 303 302 301 301 301 302 303 303 303 304 305
280 280 282 284 286 289 291 292 294 295 297 298 298 299 299 300 301 302 303 304 305 306 307 307 307 307 307 307 308 307 307 307 306 305 304 304 305 305 305 304 305 307 310
282 284 286 288 290 292 294 296 298 299 300 300 301 301 302 304 304 305 306 307 307 308 308 309 309 309 309 310 310 311 310 310 309 308 307 307 308 308 307 307 308 310 313
286 289 292 294 296 297 299 300 301 302 302 303 304 305 306 307 307 308 309 309 310 310 310 310 310 311 312 313 314 315 314 313 311 310 310 309 310 311 310 310 311 313 315
Height
5824 5824 5824 5825 5826 5827 5828 5830 5833 5835 5838 5841 5844 5846 5848 5851 5853 5855 5857 5859 5861 5862 5864 5866 5867 5868 5869 5870 5870 5871 5871 5871 5871 5871 5870 5869 5869 5868 5867 5866 5865 5864 5863
5822 5822 5822 5823 5823 5824 5825 5827 5830 5832 5835 5837 5840 5842 5844 5846 5848 5850 5852 5854 5856 5858 5859 5860 5862 5863 5863 5864 5865 5865 5866 5866 5866 5865 5864 5863 5863 5862 5861 5860 5858 5857 5856
5820 5820 5820 5820 5820 5821 5822 5825 5827 5829 5832 5834 5836 5838 5840 5842 5844 5846 5848 5849 5851 5852 5853 5855 5856 5857 5857 5858 5859 5859 5860 5859 5859 5859 5858 5857 5856 5855 5854 5852 5851 5850 5848
5819 5818 5818 5818 5818 5818 5820 5822 5824 5826 5828 5830 5832 5834 5836 5837 5839 5841 5843 5844 5846 5847 5848 5849 5850 5851 5851 5852 5852 5853 5853 5853 5852 5851 5850 5849 5848 5847 5845 5844 5843 5841 5839
5817 5817 5816 5815 5816 5816 5817 5819 5820 5822 5824 5826 5828 5830 5831 5833 5834 5836 5837 5839 5840 5842 5842 5843 5844 5844 5845 5845 5845 5845 5845 5845 5844 5843 5842 5841 5839 5838 5836 5835 5833 5832 5830
5815 5815 5814 5813 5813 5813 5814 5816 5817 5819 5821 5823 5824 5825 5827 5828 5829 5830 5832 5833 5835 5836 5837 5837 5837 5838 5838 5838 5838 5838 5837 5836 5835 5834 5833 5831 5830 5828 5826 5825 5823 5822 5820
5813 5813 5813 5812 5811 5811 5812 5813 5814 5816 5817 5818 5820 5821 5822 5823 5824 5825 5826 5828 5829 5829 5830 5830 5830 5831 5830 5830 5829 5829 5828 5827 5826 5825 5824 5822 5820 5818 5816 5814 5812 5810 5808
5811 5810 5810 5810 5810 5810 5810 5811 5811 5812 5813 5815 5815 5816 5817 5818 5819 5820 5821 5822 5823 5823 5824 5823 5823 5823 5822 5822 5821 5820 5819 5817 5816 5815 5813 5812 5809 5807 5805 5803 5800 5798 5796
5808 5808 5808 5808 5808 5808 5808 5808 5808 5809 5809 5809 5810 5811 5812 5813 5814 5814 5815 5816 5816 5817 5816 5816 5815 5814 5814 5813 5812 5811 5809 5807 5805 5804 5802 5800 5798 5795 5793 5791 5788 5785 5783
5804 5804 5804 5804 5805 5805 5805 5805 5805 5805 5805 5805 5805 5806 5807 5808 5808 5808 5809 5809 5809 5809 5808 5807 5807 5806 5805 5803 5802 5801 5799 5797 5795 5793 5791 5788 5786 5783 5780 5777 5774 5771 5768
5800 5800 5800 5800 5801 5801 5801 5801 5801 5801 5801 5801 5801 5801 5802 5802 5802 5802 5801 5801 5801 5800 5800 5799 5798 5797 5796 5794 5793 5791 5789 5786 5784 5782 5779 5776 5773 5770 5766 5763 5760 5756 5753
5795 5795 5795 5795 5796 5796 5796 5796 5796 5797 5797 5796 5796 5796 5796 5796 5795 5795 5794 5794 5793 5792 5791 5790 5789 5787 5786 5784 5782 5780 5777 5775 5772 5769 5766 5763 5760 5756 5753 5749 5745 5741 5737
5789 5790 5790 5790 5790 5790 5791 5791 5791 5791 5791 5791 5790 5790 5789 5788 5788 5787 5786 5785 5784 5783 5782 5781 5779 5777 5775 5773 5770 5768 5765 5763 5760 5756 5753 5750 5746 5742 5738 5734 5729 5725 5720
5783 5784 5784 5784 5784 5785 5785 5785 5785 5785 5785 5784 5784 5783 5782 5781 5780 5779 5778 5777 5775 5774 5772 5770 5768 5766 5764 5761 5759 5756 5753 5750 5746 5743 5739 5735 5731 5726 5722 5718 5713 5708 5703
5777 5777 5778 5779 5779 5779 5778 5779 5779 5778 5778 5777 5776 5775 5774 5773 5772 5771 5770 5768 5766 5764 5762 5760 5757 5755 5752 5750 5746 5743 5740 5736 5732 5728 5724 5719 5715 5710 5705 5701 5696 5691 5686
5771 5771 5771 5772 5772 5773 5773 5772 5772 5772 5771 5770 5769 5768 5766 5765 5763 5762 5760 5758 5756 5754 5752 5749 5746 5743 5740 5737 5733 5730 5726 5721 5717 5713 5708 5704 5699 5694 5689 5684 5679 5674 5668
5764 5765 5765 5765 5766 5766 5766 5766 5765 5765 5764 5762 5761 5760 5758 5756 5754 5753 5751 5749 5746 5744 5741 5738 5735 5732 5728 5724 5720 5716 5712 5707 5702 5698 5693 5688 5683 5678 5673 5667 5662 5657 5651
5759 5759 5759 5759 5760 5760 5760 5759 5758 5757 5756 5755 5753 5751 5749 5747 5745 5743 5741 5739 5736 5733 5730 5727 5723 5720 5716 5711 5707 5702 5697 5692 5688 5683 5678 5672 5667 5662 5657 5651 5646 5641 5636
5753 5753 5753 5753 5753 5753 5752 5751 5751 5749 5748 5746 5744 5742 5741 5738 5736 5734 5732 5729 5726 5722 5719 5715 5711 5707 5703 5698 5693 5688 5683 5678 5673 5668 5663 5657 5652 5647 5642 5637 5632 5627 5622
5747 5747 5747 5747 5746 5746 5745 5744 5743 5741 5740 5738 5736 5734 5732 5730 5727 5725 5722 5719 5715 5711 5707 5703 5699 5694 5689 5684 5679 5674 5669 5664 5659 5654 5648 5643 5638 5633 5628 5624 5619 5614 5610
5741 5741 5741 5741 5740 5739 5738 5737 5736 5734 5732 5730 5728 5726 5723 5721 5718 5715 5711 5708 5704 5700 5695 5691 5686 5681 5676 5671 5665 5660 5655 5650 5645 5640 5635 5630 5625 5620 5616 5612 5607 5603 5599
5736 5736 5735 5735 5734 5732 5731 5730 5728 5727 5725 5723 5720 5718 5715 5711 5708 5704 5700 5696 5692 5687 5683 5678 5673 5668 5663 5657 5652 5647 5642 5637 5632 5627 5623 5618 5614 5609 5605 5601 5597 5593 5589
5731 5730 5729 5728 5727 5726 5725 5723 5721 5719 5717 5714 5712 5708 5705 5701 5697 5693 5689 5685 5680 5675 5671 5666 5661 5656 5650 5645 5640 5635 5630 5625 5620 5616 5612 5608 5604 5600 5596 5592 5588 5585 5581
5725 5724 5723 5722 5721 5719 5718 5716 5713 5711 5708 5705 5702 5698 5695 5690 5686 5682 5678 5673 5669 5664 5659 5654 5649 5644 5639 5634 5629 5624 5619 5614 5610 5606 5602 5599 5595 5591 5588 5584 5581 5578 5574
5719 5718 5717 5715 5714 5712 5710 5707 5705 5702 5699 5695 5692 5688 5684 5680 5676 5671 5667 5663 5658 5653 5649 5644 5639 5634 5629 5624 5619 5615 5610 5606 5602 5598 5595 5591 5588 5585 5581 5578 5575 5572 5569
5713 5712 5710 5708 5706 5704 5702 5699 5696 5693 5689 5686 5682 5678 5674 5670 5666 5661 5657 5653 5648 5644 5639 5634 5630 5625 5620 5616 5611 5607 5603 5599 5595 5591 5588 5585 5582 5579 5576 5573 5570 5567 5564